Total_Precipitation_Accumulation
0.17 0.24 0.28 0.32 0.27 0.21 0.17 0.17 0.29 0.37 0.52 0.65 0.66 0.76 1.02 0.87 0.76 0.68 0.66 0.58 0.55 0.63 0.78 0.89 0.91 0.91 1.00 1.14 1.27 1.40 1.52 1.66 1.91 2.19 2.04 1.79 1.74 1.69 1.63 1.72 1.86 2.17 2.32 2.41
0.16 0.22 0.26 0.28 0.29 0.23 0.20 0.18 0.18 0.29 0.49 0.58 0.68 0.73 0.82 0.82 0.85 0.84 0.76 0.74 0.74 0.90 0.94 0.98 1.05 1.00 0.97 1.01 1.11 1.30 1.44 1.57 1.76 1.88 1.72 1.55 1.43 1.45 1.48 1.57 1.75 1.94 2.08 2.20
0.29 0.25 0.29 0.33 0.30 0.26 0.23 0.29 0.28 0.37 0.49 0.55 0.77 0.75 0.74 0.90 0.99 0.92 0.75 0.80 0.85 0.91 1.05 1.00 0.98 0.98 0.99 1.04 1.22 1.40 1.44 1.48 1.62 1.72 1.70 1.59 1.42 1.43 1.50 1.60 1.73 1.81 1.85 1.90
0.44 0.46 0.56 0.43 0.37 0.34 0.32 0.37 0.38 0.42 0.48 0.59 0.77 0.77 0.66 0.70 0.76 0.84 0.87 0.94 0.93 0.92 0.98 0.93 0.88 0.98 1.01 1.01 1.24 1.46 1.50 1.55 1.70 1.86 1.87 1.80 1.74 1.70 1.79 1.84 1.81 1.80 1.84 1.88
0.63 0.61 0.55 0.53 0.52 0.52 0.59 0.75 0.68 0.59 0.56 0.62 0.63 0.72 0.80 0.69 0.63 0.75 0.85 1.03 1.07 0.99 1.05 1.10 1.13 1.18 1.21 1.19 1.37 1.58 1.69 1.74 1.81 1.97 2.02 2.05 2.12 2.17 2.21 2.19 2.05 2.00 2.08 2.10
0.70 0.78 0.78 0.75 0.64 0.59 0.76 1.22 1.09 0.86 0.72 0.68 0.69 1.03 1.18 0.97 0.82 0.84 0.84 0.99 1.17 1.17 1.03 1.09 1.15 1.27 1.46 1.54 1.62 1.72 1.87 2.01 2.03 2.17 2.29 2.26 2.35 2.48 2.60 2.61 2.50 2.52 2.38 2.23
0.77 0.87 0.93 0.87 0.66 0.70 1.28 1.65 1.29 1.08 1.00 0.91 0.98 1.02 1.08 0.96 0.88 0.90 0.88 0.94 1.05 1.27 1.17 1.14 1.25 1.42 1.63 1.75 1.91 1.99 2.08 2.14 2.16 2.31 2.46 2.60 2.80 2.97 2.97 2.90 2.90 2.81 2.54 2.40
0.96 1.19 1.28 0.86 0.84 1.16 1.46 1.28 1.30 1.33 1.42 1.33 1.13 0.93 0.93 0.97 0.88 0.88 0.88 0.90 0.92 1.00 1.12 1.21 1.30 1.58 1.76 1.79 1.87 2.02 2.15 2.26 2.41 2.50 2.52 2.64 3.00 3.12 3.10 3.05 2.91 2.71 2.55 2.33
1.20 1.39 1.17 0.95 1.08 1.13 1.26 1.34 1.38 1.44 1.49 1.35 1.15 1.01 1.01 1.02 0.91 0.84 0.82 0.88 0.92 0.95 1.06 1.22 1.40 1.65 1.97 2.07 2.02 2.00 2.12 2.29 2.45 2.59 2.79 2.99 3.14 3.11 3.03 2.98 2.85 2.69 2.53 2.32
1.39 1.40 1.14 1.11 1.17 1.13 1.20 1.29 1.40 1.33 1.28 1.26 1.19 1.05 1.02 0.97 0.85 0.81 0.84 0.88 0.92 1.00 1.11 1.29 1.51 1.73 2.03 2.00 1.93 1.98 2.01 2.14 2.26 2.34 2.41 2.56 2.80 2.76 2.61 2.57 2.61 2.60 2.55 2.44
1.61 1.61 1.51 1.46 1.43 1.33 1.23 1.21 1.20 1.22 1.16 1.19 1.22 1.18 1.01 0.98 0.92 0.82 0.83 0.88 0.95 1.09 1.30 1.40 1.55 1.69 1.74 1.74 1.76 1.79 1.81 1.88 1.91 1.95 2.03 2.12 2.22 2.32 2.30 2.29 2.29 2.31 2.30 2.27
1.91 1.71 1.66 1.86 1.71 1.55 1.35 1.28 1.28 1.24 1.19 1.22 1.26 1.30 1.11 1.00 0.99 0.90 0.87 0.93 1.09 1.20 1.29 1.43 1.66 1.84 1.84 1.79 1.84 1.89 1.82 1.77 1.74 1.76 1.81 1.83 1.91 1.96 1.99 1.89 1.80 1.70 1.64 1.61
1.68 1.58 1.56 1.62 1.58 1.47 1.36 1.37 1.46 1.44 1.34 1.25 1.25 1.25 1.12 1.02 0.99 0.94 0.93 1.00 1.15 1.18 1.22 1.37 1.53 1.66 1.79 1.94 2.02 2.07 2.00 1.89 1.79 1.70 1.69 1.73 1.75 1.83 1.85 1.76 1.60 1.44 1.33 1.27
1.69 1.63 1.63 1.55 1.50 1.40 1.31 1.36 1.44 1.37 1.34 1.27 1.25 1.21 1.14 1.03 1.04 1.08 1.04 1.10 1.23 1.28 1.30 1.41 1.52 1.60 1.67 1.89 2.06 2.13 2.09 1.98 1.82 1.70 1.65 1.64 1.66 1.70 1.80 1.88 1.78 1.59 1.37 1.18
1.99 1.85 1.74 1.70 1.65 1.55 1.37 1.34 1.38 1.32 1.22 1.26 1.29 1.31 1.23 1.18 1.14 1.16 1.12 1.10 1.22 1.32 1.36 1.45 1.51 1.54 1.66 1.79 1.86 1.90 1.89 1.80 1.66 1.62 1.63 1.63 1.68 1.70 1.68 1.72 1.68 1.61 1.46 1.26
1.99 1.88 1.72 1.70 1.71 1.66 1.54 1.45 1.45 1.44 1.36 1.27 1.27 1.27 1.28 1.27 1.20 1.15 1.12 1.13 1.24 1.27 1.26 1.35 1.46 1.49 1.61 1.80 1.88 1.88 1.88 1.84 1.67 1.61 1.70 1.74 1.73 1.73 1.70 1.77 1.75 1.68 1.51 1.30
1.88 1.88 1.74 1.57 1.55 1.58 1.50 1.44 1.40 1.41 1.40 1.34 1.24 1.15 1.14 1.16 1.23 1.22 1.14 1.08 1.15 1.27 1.29 1.41 1.46 1.46 1.58 1.77 1.96 1.94 1.86 1.81 1.69 1.60 1.64 1.76 1.79 1.76 1.71 1.73 1.70 1.70 1.57 1.39
1.57 1.61 1.59 1.50 1.39 1.37 1.38 1.33 1.36 1.37 1.39 1.33 1.25 1.20 1.22 1.29 1.41 1.45 1.41 1.33 1.33 1.33 1.31 1.35 1.40 1.44 1.53 1.67 1.75 1.76 1.78 1.72 1.58 1.43 1.45 1.55 1.61 1.65 1.68 1.64 1.66 1.68 1.63 1.46
1.36 1.50 1.52 1.46 1.44 1.30 1.37 1.36 1.35 1.37 1.34 1.34 1.34 1.30 1.28 1.37 1.47 1.54 1.61 1.60 1.57 1.50 1.41 1.34 1.44 1.42 1.52 1.63 1.65 1.65 1.63 1.56 1.42 1.25 1.25 1.40 1.46 1.54 1.59 1.56 1.54 1.53 1.47 1.39
1.51 1.56 1.52 1.43 1.48 1.51 1.46 1.47 1.44 1.43 1.34 1.28 1.32 1.40 1.48 1.50 1.57 1.62 1.63 1.59 1.51 1.47 1.40 1.32 1.25 1.24 1.32 1.46 1.56 1.55 1.52 1.47 1.42 1.25 1.22 1.36 1.46 1.55 1.53 1.49 1.49 1.48 1.39 1.37
1.49 1.47 1.39 1.30 1.32 1.34 1.28 1.29 1.30 1.35 1.41 1.40 1.48 1.58 1.66 1.63 1.64 1.76 1.87 1.73 1.47 1.43 1.39 1.36 1.27 1.25 1.23 1.36 1.46 1.46 1.46 1.46 1.50 1.38 1.32 1.35 1.41 1.46 1.43 1.38 1.37 1.35 1.36 1.40
1.44 1.44 1.43 1.41 1.37 1.28 1.15 1.14 1.23 1.32 1.41 1.51 1.59 1.67 1.73 1.75 1.79 1.79 1.72 1.74 1.62 1.64 1.55 1.43 1.36 1.32 1.30 1.30 1.33 1.40 1.41 1.43 1.52 1.47 1.40 1.45 1.53 1.55 1.54 1.49 1.44 1.37 1.36 1.38
1.41 1.45 1.42 1.44 1.48 1.41 1.27 1.22 1.20 1.29 1.39 1.42 1.50 1.70 1.78 1.75 1.82 2.00 1.81 1.51 1.44 1.52 1.53 1.51 1.46 1.36 1.25 1.14 1.22 1.34 1.36 1.40 1.43 1.38 1.32 1.31 1.35 1.40 1.40 1.32 1.28 1.29 1.28 1.27
1.51 1.47 1.46 1.48 1.49 1.39 1.36 1.35 1.33 1.34 1.29 1.25 1.33 1.52 1.71 1.81 1.75 1.66 1.66 1.56 1.39 1.31 1.25 1.30 1.29 1.23 1.22 1.16 1.22 1.31 1.34 1.40 1.36 1.28 1.25 1.25 1.28 1.29 1.27 1.25 1.23 1.23 1.24 1.26
1.55 1.49 1.43 1.44 1.48 1.46 1.40 1.40 1.47 1.43 1.32 1.30 1.29 1.33 1.45 1.61 1.71 1.57 1.38 1.32 1.25 1.11 1.05 1.06 1.03 1.06 1.06 1.08 1.10 1.19 1.32 1.41 1.37 1.25 1.17 1.19 1.20 1.20 1.16 1.13 1.18 1.26 1.31 1.30
1.55 1.53 1.49 1.44 1.40 1.40 1.39 1.45 1.60 1.59 1.59 1.64 1.52 1.42 1.45 1.46 1.46 1.50 1.40 1.25 1.16 1.06 0.96 0.99 0.98 0.96 0.95 1.03 1.04 1.07 1.18 1.32 1.38 1.34 1.21 1.23 1.21 1.20 1.20 1.18 1.14 1.16 1.20 1.21
1.57 1.54 1.50 1.46 1.41 1.34 1.41 1.52 1.65 1.71 1.77 1.85 1.85 1.70 1.57 1.43 1.38 1.39 1.36 1.30 1.19 1.09 1.04 1.00 0.95 0.93 0.94 0.96 0.92 0.90 0.98 1.09 1.16 1.23 1.30 1.32 1.34 1.35 1.31 1.24 1.15 1.10 1.10 1.11